Lapse_Rate
7.5 7.5 7.5 7.3 7.4 7.4 7.2 7.2 7.3 7.3 7.3 7.4 7.4 7.4 7.4 7.3 7.2 7.2 7.1 6.9 6.9 6.9 7.0 7.2 7.2 7.0 7.1 6.8 6.8 6.6 6.3 6.2
7.6 7.4 7.2 7.1 7.1 7.2 7.2 7.2 7.2 7.3 7.2 7.3 7.3 7.4 7.4 7.3 7.2 7.1 6.8 6.9 7.0 7.0 7.0 7.0 6.8 6.8 6.9 6.8 6.8 6.8 6.6 6.4
7.8 7.6 7.3 7.1 7.1 7.0 7.2 7.1 7.1 7.2 7.2 7.3 7.3 7.3 7.3 7.2 7.1 7.0 6.9 6.6 6.6 6.7 6.7 6.7 6.6 6.8 6.7 6.7 6.7 6.7 6.7 6.6
8.1 7.9 7.5 7.4 7.3 7.1 7.2 7.1 7.0 7.3 7.3 7.2 7.2 7.3 7.2 7.1 6.8 6.7 6.5 6.4 6.5 6.6 6.6 6.6 6.6 6.7 6.7 6.7 6.8 6.9 6.9 6.7
8.2 7.9 7.7 7.7 7.5 7.3 7.5 7.3 7.2 7.1 7.1 7.1 7.3 7.2 6.8 6.8 6.4 6.3 6.4 6.5 6.6 6.7 6.7 6.8 6.8 6.9 6.9 7.0 7.1 6.9 7.1 7.0
8.0 7.9 7.8 7.7 7.6 7.5 7.4 7.3 7.1 7.0 7.1 7.0 7.0 7.0 6.9 6.7 6.6 6.6 6.7 6.6 6.6 6.6 6.6 6.6 6.7 6.7 6.8 6.9 7.0 7.0 6.9 6.9
8.0 8.0 7.9 7.8 7.8 7.7 7.4 7.1 7.0 7.0 7.0 6.9 6.8 6.7 6.7 6.6 6.6 6.6 6.5 6.4 6.3 6.3 6.3 6.3 6.3 6.4 6.4 6.6 6.7 6.7 6.6 6.7
8.0 8.0 7.9 7.9 7.8 7.6 7.4 7.2 7.1 7.1 6.9 6.8 6.7 6.7 6.7 6.6 6.5 6.5 6.4 6.4 6.4 6.4 6.3 6.3 6.3 6.2 6.2 6.3 6.4 6.4 6.4 6.5
8.0 7.8 7.9 7.9 7.7 7.5 7.3 7.1 7.0 6.9 6.7 6.6 6.6 6.6 6.5 6.4 6.5 6.6 6.6 6.5 6.6 6.5 6.4 6.4 6.3 6.3 6.3 6.3 6.4 6.4 6.4 6.4
7.7 7.7 7.7 7.6 7.4 7.3 7.1 7.0 6.8 6.7 6.5 6.4 6.4 6.4 6.3 6.4 6.5 6.5 6.5 6.5 6.4 6.3 6.4 6.4 6.4 6.3 6.3 6.3 6.2 6.2 6.2 6.2
7.6 7.3 7.2 7.2 7.0 7.0 7.0 6.8 6.7 6.6 6.5 6.3 6.3 6.3 6.3 6.4 6.3 6.4 6.4 6.5 6.4 6.3 6.3 6.2 6.2 6.1 6.1 6.2 6.2 6.2 6.1 6.1
7.5 7.3 7.1 7.0 6.8 6.6 6.8 6.8 6.7 6.7 6.5 6.3 6.4 6.4 6.4 6.5 6.5 6.5 6.5 6.5 6.5 6.5 6.4 6.4 6.3 6.2 6.3 6.3 6.2 6.1 6.0 6.2
7.4 7.3 7.0 6.9 6.9 6.9 6.7 6.6 6.6 6.6 6.6 6.5 6.5 6.5 6.5 6.5 6.5 6.6 6.7 6.5 6.4 6.4 6.4 6.5 6.4 6.3 6.4 6.4 6.2 6.2 6.2 6.3
7.6 7.4 7.1 7.0 6.8 6.5 6.5 6.5 6.5 6.5 6.6 6.5 6.5 6.4 6.4 6.5 6.6 6.6 6.6 6.6 6.5 6.5 6.5 6.4 6.4 6.5 6.3 6.1 6.2 6.2 6.5 6.3
7.2 7.3 7.2 7.0 6.7 6.4 6.4 6.5 6.7 6.7 6.6 6.4 6.3 6.5 6.5 6.5 6.6 6.5 6.5 6.4 6.3 6.2 6.2 6.3 6.4 6.4 6.3 6.2 6.3 6.5 6.5 6.6
7.4 7.3 7.3 7.2 6.9 6.6 6.6 6.6 6.6 6.4 6.5 6.5 6.5 6.5 6.6 6.5 6.4 6.4 6.5 6.4 6.1 6.2 6.4 6.4 6.4 6.4 6.3 6.6 6.7 6.9 6.8 6.8
7.0 7.2 7.3 7.3 7.1 6.8 6.7 6.7 6.6 6.8 6.8 6.8 6.9 6.8 6.5 6.5 6.4 6.3 6.2 6.2 6.4 6.5 6.4 6.3 6.3 6.2 6.4 6.6 6.7 6.6 6.5 6.6
7.1 7.2 7.3 7.3 7.0 6.7 6.7 6.8 6.9 6.7 6.5 6.3 6.3 6.1 6.1 6.1 6.1 6.1 6.3 6.3 6.1 6.0 6.0 6.1 6.3 6.6 6.7 6.7 6.8 6.9 6.8 6.8
7.6 7.0 6.6 6.3 6.5 6.9 7.0 7.0 6.9 6.8 6.6 6.4 6.1 6.0 6.0 6.0 5.9 5.8 5.9 5.7 5.8 5.9 6.0 6.2 6.4 6.6 6.8 6.7 6.6 6.8 6.9 6.6
6.5 6.4 6.0 5.7 6.3 6.8 7.1 7.1 6.9 7.1 6.9 6.3 5.7 5.7 5.6 5.5 5.4 5.5 5.5 5.7 5.8 5.9 6.2 6.3 6.2 5.9 6.5 6.5 6.6 6.6 6.8 6.9
Wind_Speed
12 14 13 16 18 19 18 16 16 16 17 18 15 15 15 13 11 10 9 8 7 6 6 8 9 10 11 15 12 12 11 11
9 12 12 14 14 19 19 17 16 17 17 17 17 15 14 11 10 9 8 8 8 11 11 11 12 12 15 16 6 9 11 11
10 9 10 12 12 14 18 17 16 17 16 16 16 14 13 11 10 10 10 7 11 15 16 14 12 14 15 15 11 12 10 11
10 9 9 13 12 12 14 14 14 15 15 14 14 14 12 11 11 11 15 16 15 13 14 12 12 10 11 11 10 11 10 10
12 11 12 9 9 10 10 13 11 10 10 11 13 12 13 10 14 12 12 12 12 12 11 11 10 10 10 11 11 11 10 10
13 12 10 9 12 10 10 9 10 8 9 11 12 9 11 10 11 10 11 10 10 10 9 9 10 10 10 9 10 9 10 13
14 12 10 8 7 6 8 6 9 9 11 14 16 10 5 10 9 10 11 10 8 7 7 7 8 8 9 9 8 8 11 11
16 13 10 7 5 5 4 8 11 12 12 13 15 15 12 9 6 7 9 9 8 7 4 3 3 4 4 7 6 7 9 11
17 16 8 8 8 6 7 9 12 9 10 13 15 16 13 11 6 4 7 7 8 7 6 7 4 5 5 6 7 9 6 12
15 12 13 12 9 6 7 8 10 9 9 10 12 15 16 10 5 4 7 10 9 5 4 3 3 3 2 3 3 5 12 12
13 14 16 15 12 9 9 9 8 9 9 8 10 14 14 13 7 8 10 8 5 3 4 3 3 4 4 4 4 3 5 10
18 15 17 16 12 10 7 6 6 8 6 6 7 10 12 12 9 8 10 4 4 3 4 3 2 3 3 6 5 6 6 5
20 18 15 13 11 9 8 6 4 3 6 6 7 8 11 10 7 7 8 4 4 3 2 5 6 5 3 4 8 7 8 6
17 16 15 12 10 7 5 8 4 4 6 7 8 9 10 9 7 4 5 4 5 5 3 2 3 4 3 1 3 3 5 6
18 17 16 13 13 9 8 7 5 3 4 4 4 9 10 11 9 6 5 4 4 4 4 4 3 4 6 3 2 3 1 3
16 15 14 11 13 11 15 8 7 4 4 4 4 9 9 9 9 8 7 4 5 4 4 3 3 3 2 4 5 2 2 2
13 13 12 11 10 13 11 11 4 7 7 9 6 6 10 10 10 8 6 4 4 6 5 6 3 3 2 1 3 4 4 3
12 12 8 10 11 14 15 14 12 11 9 7 5 4 3 8 9 7 7 5 4 4 5 6 5 4 3 4 2 2 1 3
7 7 7 7 9 11 11 13 14 15 13 9 9 5 3 5 6 5 3 6 7 8 5 6 5 5 4 3 3 3 3 2
7 4 6 5 6 6 7 10 8 9 10 8 6 4 4 5 5 6 6 7 8 9 4 4 5 5 6 5 4 3 3 2
Wind_Direction
123 131 122 129 132 133 128 128 131 129 124 120 119 112 108 102 92 84 82 78 69 54 33 21 11 1 348 326 316 329 322 313
127 125 125 119 128 132 127 124 126 123 123 126 125 119 110 104 101 100 88 77 58 32 27 22 20 22 18 22 22 353 344 324
137 131 124 121 126 139 134 139 141 131 131 135 131 126 122 116 112 96 74 71 67 66 72 62 47 40 41 44 45 33 14 29
140 132 133 135 141 139 138 141 147 149 149 142 138 136 127 128 106 92 86 85 78 70 64 56 47 40 32 33 40 42 27 21
149 147 152 147 150 152 147 143 144 144 150 140 132 123 126 107 99 97 86 74 67 57 51 47 42 33 25 21 18 26 18 16
150 155 159 158 153 158 157 136 129 119 130 150 127 117 110 104 102 100 81 70 66 55 49 42 38 36 40 37 35 26 17 38
156 159 163 169 163 162 150 136 125 121 109 123 130 120 111 112 107 99 87 80 75 60 50 41 32 21 27 25 17 15 35 91
156 164 171 156 140 127 117 116 118 107 113 123 136 128 126 124 120 101 94 95 91 88 79 57 38 17 15 6 351 356 31 115
165 165 154 142 123 114 114 122 114 107 122 131 132 129 127 127 119 104 117 109 96 76 57 53 37 15 3 343 345 359 17 118
166 153 142 133 119 106 106 96 100 102 109 116 122 129 129 116 105 102 112 80 65 49 36 40 26 6 319 336 358 13 98 109
149 142 139 131 118 114 105 104 98 111 109 98 115 128 128 119 111 114 99 80 73 64 47 63 17 353 348 8 12 52 91 108
147 149 144 139 130 122 109 99 96 102 92 91 110 124 122 109 107 103 98 80 61 66 86 43 43 346 19 48 41 66 55 59
154 149 149 141 139 136 130 128 117 90 95 92 85 122 115 106 106 100 97 94 94 84 95 45 26 3 55 37 58 47 56 44
152 147 150 147 143 139 131 136 116 119 110 83 91 102 114 102 112 115 118 103 76 63 78 114 58 14 115 107 98 28 33 42
154 153 153 151 140 122 117 101 100 91 73 68 55 93 101 109 109 111 97 90 88 77 72 84 109 32 36 129 105 169 140 345
152 153 148 147 146 141 151 146 141 151 139 125 94 97 93 94 102 96 89 93 93 85 73 87 109 85 15 36 55 107 146 127
145 145 148 154 154 149 149 149 118 132 132 130 125 116 115 110 112 110 106 102 98 95 80 73 67 99 101 118 75 54 52 109
136 149 149 157 163 161 161 153 142 141 145 139 141 130 110 110 114 116 121 116 108 100 93 88 86 75 67 55 70 123 90 100
124 149 156 164 161 171 162 150 156 156 153 152 155 153 151 151 140 145 137 132 116 103 92 90 81 75 54 70 67 65 102 100
162 157 127 138 174 156 141 147 156 158 155 154 148 136 125 138 136 137 137 128 116 107 97 100 94 90 75 70 70 42 63 88